Ashland, WI

12:35 PM CST on November 17, 2017 (GMT -0600)
Kennedy Memorial

Weather History for KASX - April, 2014

Change the Weather History Date:

Thursday, April 24, 2014

  Actual Average Record
Temperature  
Mean Temperature 36 °F -  
Max Temperature 39 °F 56 °F 85 °F (1990)
Min Temperature 33 °F 33 °F 18 °F (1974)
Degree Days  
Heating Degree Days 29    
Moisture  
Dew Point 35 °F    
Average Humidity 97    
Maximum Humidity 100    
Minimum Humidity 86    
Precipitation  
Precipitation 1.08 in - - ()
Sea Level Pressure  
Sea Level Pressure 29.88 in    
Wind  
Wind Speed 5 mph (ENE)    
Max Wind Speed 10 mph    
Max Gust Speed -    
Visibility 5 miles    
Events Rain , Snow    
Averages and records for this station are not official NWS values.
T = Trace of Precipitation, MM = Missing Value Source: NWS Daily Summary

Daily Weather History Graph

Daily Weather History Graph

Search for Another Location

Airport or City:

Trip Planner

Search our weather history database for the weather conditions in past years. The results will help you decide how hot, cold, wet, or windy it might be!

Date:

Astronomy

Apr. 24, 2014 Rise Set
Actual Time 6:00 AM CDT 8:03 PM CDT
Civil Twilight 5:28 AM CDT 8:36 PM CDT
Nautical Twilight 4:47 AM CDT 9:16 PM CDT
Astronomical Twilight 4:03 AM CDT 10:01 PM CDT
Moon 3:30 AM CDT (4/24) 3:02 PM CDT (4/24)
Length of Visible Light 15h 08m
Length of Day
14h 03m
Waning Crescent, 24% of the Moon is Illuminated
Apr 24
Waning Crescent
Apr 29
New
May 6
First Quarter
May 14
Full
May 21
Last Quarter

Hourly Weather History & Observations

Time (CDT) Temp. Windchill Dew Point Humidity Pressure Visibility Wind Dir Wind Speed Gust Speed Precip Events Conditions
12:53 AM 39.0 °F 36.8 °F 36.0 °F 89% 30.08 in 9.0 mi South 3.5 mph - 0.01 in Rain Light Rain
1:53 AM 39.0 °F - 37.0 °F 93% 30.07 in 6.0 mi Calm Calm - 0.08 in Rain Light Rain
2:53 AM 37.9 °F - 37.9 °F 100% 30.07 in 6.0 mi Calm Calm - 0.06 in Rain Light Rain
3:53 AM 37.0 °F 33.3 °F 37.0 °F 100% 30.07 in 7.0 mi East 4.6 mph - 0.06 in   Overcast
4:01 AM 37.0 °F 31.6 °F 37.0 °F 100% 30.04 in 7.0 mi ESE 6.9 mph - 0.01 in Rain Light Rain
4:53 AM 37.0 °F 32.4 °F 36.0 °F 96% 30.05 in 10.0 mi East 5.8 mph - 0.02 in   Overcast
5:38 AM 36.0 °F 31.1 °F 35.1 °F 97% 30.02 in 10.0 mi East 5.8 mph - N/A   Overcast
5:53 AM 36.0 °F 32.1 °F 35.1 °F 97% 30.04 in 10.0 mi East 4.6 mph - N/A   Overcast
6:53 AM 36.0 °F 32.1 °F 35.1 °F 97% 30.03 in 10.0 mi ENE 4.6 mph - N/A   Overcast
7:53 AM 36.0 °F 31.1 °F 35.1 °F 97% 30.02 in 10.0 mi ENE 5.8 mph - N/A   Overcast
8:53 AM 36.0 °F 31.1 °F 35.1 °F 97% 30.01 in 10.0 mi ENE 5.8 mph - N/A   Overcast
9:53 AM 37.9 °F 33.5 °F 34.0 °F 86% 29.98 in 8.0 mi East 5.8 mph - 0.00 in Rain Light Rain
10:19 AM 37.9 °F 33.5 °F 34.0 °F 86% 29.95 in 9.0 mi East 5.8 mph - 0.01 in   Overcast
10:53 AM 37.0 °F 31.6 °F 34.0 °F 89% 29.98 in 7.0 mi East 6.9 mph - 0.02 in Rain Light Rain
11:28 AM 37.0 °F 31.0 °F 34.0 °F 89% 29.94 in 5.0 mi ENE 8.1 mph - 0.03 in   Overcast
11:41 AM 37.0 °F 30.4 °F 35.1 °F 93% 29.94 in 6.0 mi ENE 9.2 mph - 0.04 in   Overcast
11:53 AM 37.0 °F 31.0 °F 35.1 °F 93% 29.96 in 6.0 mi ENE 8.1 mph - 0.05 in Rain Light Rain
12:35 PM 37.0 °F 30.4 °F 36.0 °F 96% 29.91 in 4.0 mi ENE 9.2 mph - 0.07 in Rain Light Rain
12:53 PM 37.0 °F 29.8 °F 36.0 °F 96% 29.93 in 5.0 mi ENE 10.4 mph - 0.10 in Rain Light Rain
1:09 PM 37.0 °F 31.6 °F 36.0 °F 96% 29.89 in 5.0 mi ENE 6.9 mph - 0.03 in Rain Light Rain
1:53 PM 36.0 °F 29.0 °F 36.0 °F 100% 29.90 in 4.0 mi ENE 9.2 mph - 0.10 in Rain Light Rain
2:53 PM 35.1 °F 27.4 °F 34.0 °F 96% 29.87 in 3.0 mi ENE 10.4 mph - 0.13 in Snow Light Snow
3:53 PM 34.0 °F 26.0 °F 33.1 °F 96% 29.83 in 2.5 mi ENE 10.4 mph - 0.14 in Snow Light Snow
4:02 PM 33.1 °F 24.9 °F 33.1 °F 100% 29.80 in 1.8 mi ENE 10.4 mph - 0.02 in Snow Light Snow
4:26 PM 33.1 °F 26.1 °F 33.1 °F 100% 29.79 in 2.0 mi NE 8.1 mph - 0.08 in Snow Light Snow
4:39 PM 34.0 °F 27.2 °F 33.1 °F 96% 29.79 in 3.0 mi NE 8.1 mph - 0.09 in Rain Light Rain
4:53 PM 34.0 °F 27.2 °F 34.0 °F 100% 29.81 in 4.0 mi NE 8.1 mph - 0.12 in Rain Light Rain
5:53 PM 34.0 °F 28.0 °F 34.0 °F 100% 29.79 in 3.0 mi NE 6.9 mph - 0.06 in   Overcast
6:08 PM 34.0 °F 28.0 °F 34.0 °F 100% 29.76 in 4.0 mi NNE 6.9 mph - 0.01 in   Overcast
6:53 PM 34.0 °F 28.0 °F 34.0 °F 100% 29.79 in 4.0 mi NNE 6.9 mph - 0.04 in   Overcast
7:30 PM 34.0 °F 28.0 °F 34.0 °F 100% 29.74 in 2.0 mi NE 6.9 mph - 0.01 in   Overcast
7:53 PM 34.0 °F 27.2 °F 34.0 °F 100% 29.77 in 2.0 mi NE 8.1 mph - 0.02 in   Overcast
8:08 PM 34.0 °F 28.0 °F 34.0 °F 100% 29.73 in 3.0 mi NE 6.9 mph - N/A   Overcast
8:53 PM 34.0 °F 28.0 °F 34.0 °F 100% 29.76 in 6.0 mi NNE 6.9 mph - 0.02 in   Overcast
9:08 PM 33.1 °F 27.7 °F 33.1 °F 100% 29.73 in 1.8 mi NNE 5.8 mph - N/A   Overcast
9:25 PM 33.1 °F 26.9 °F 33.1 °F 100% 29.73 in 3.0 mi NE 6.9 mph - 0.00 in   Overcast
9:53 PM 33.1 °F 28.7 °F 33.1 °F 100% 29.75 in 5.0 mi NE 4.6 mph - 0.01 in   Overcast
10:25 PM 33.1 °F 30.0 °F 33.1 °F 100% 29.71 in 4.0 mi ENE 3.5 mph - 0.02 in   Overcast
10:53 PM 34.0 °F 31.0 °F 34.0 °F 100% 29.73 in 4.0 mi NE 3.5 mph - 0.02 in   Overcast
11:10 PM 34.0 °F 29.8 °F 34.0 °F 100% 29.70 in 2.5 mi ENE 4.6 mph - 0.01 in   Overcast
11:31 PM 34.0 °F 31.0 °F 34.0 °F 100% 29.69 in 1.8 mi NE 3.5 mph - 0.01 in   Overcast
11:53 PM 34.0 °F 29.8 °F 34.0 °F 100% 29.71 in 2.0 mi NE 4.6 mph - 0.02 in   Overcast